[[{"header":{"parameterUnit":"m.s-1","parameterCategory":1,"la1":30.2991,"la2":30.254,"lo1":-89.0895,"lo2":-89.0444,"dy":0.0017,"dx":0.0017,"nx":28,"ny":28,"refTime":"2025-03-16T09:00:00:Z","depth":0,"parameterNumber":2,"parameterNumberName":"U-component_of_WINDS"},"data":[0,0,0,0,0,0,0,0,0,0,0,0,0,0,0,0,0,0,0,0,0,0,0,0,0,0,0,0,0,0,0,0,0,0,0,0,0,0,0,0,0,0,0,0,0,0,0,0,0,0,0,0,0,0,0,0,0,0,3.2408,3.2409,0,3.2477,3.2478,3.2479,3.2433,3.2431,3.2429,3.2427,3.2497,3.25,3.2504,0,0,0,0,0,0,0,0,0,0,0,0,0,3.2234,3.2238,3.2408,3.2409,3.2409,3.2477,3.2478,3.2479,3.2433,3.2431,3.2428,3.2426,3.2495,3.25,3.2505,0,0,0,0,0,0,0,0,0,0,0,0,0,3.2307,3.2239,3.2408,3.2395,3.2394,3.2477,3.2478,3.2479,3.2434,3.2431,3.2427,3.2424,3.2494,3.25,3.2505,3.2604,0,0,3.2523,3.2525,0,0,0,0,0,0,0,0,3.2303,3.2314,3.2396,3.2396,3.2395,3.2443,3.2443,3.2521,3.2435,3.2419,3.2427,3.2423,3.2481,3.2488,3.2508,3.2607,3.261,3.2523,3.2527,3.2529,3.2531,0,0,0,0,0,0,0,3.2298,3.231,3.2435,3.2397,3.2397,3.2385,3.2392,3.2457,3.2467,3.242,3.2417,3.2426,3.2481,3.2503,3.2509,3.2611,3.2523,3.2528,3.2532,3.2534,3.2796,3.2799,0,0,0,0,0,0,3.2294,3.2307,3.2433,3.2437,3.2341,3.2391,3.2399,3.2431,3.2466,3.2468,3.2428,3.2423,3.2494,3.2503,3.2512,3.263,3.2529,3.2535,3.2538,3.2793,3.2797,3.2801,0,0,0,0,0,0,3.2291,3.2306,3.243,3.2371,3.2386,3.2397,3.2434,3.2434,3.2456,3.2472,3.2474,3.2449,3.2492,3.2503,3.2582,3.2632,3.2537,3.2542,3.2789,3.2794,3.2799,3.2867,0,0,0,0,0,0,3.2286,3.2305,3.2343,3.2372,3.2389,3.25,3.2437,3.2438,3.2466,3.246,3.2492,3.2494,3.249,3.2573,3.2587,3.2638,3.2547,3.2784,3.2791,3.2797,3.2861,3.2874,3.2886,0,0,0,0,0,3.228,3.2359,3.2345,3.2361,3.2437,3.2502,3.2512,3.2506,3.247,3.2508,3.2519,3.2493,3.2624,3.2582,3.2597,3.265,3.2781,3.2789,3.2797,3.2855,3.2872,3.2886,0,0,0,0,0,0,3.2334,3.2363,3.2347,3.2438,3.2469,3.2495,3.2542,3.2524,3.2565,3.2557,3.2548,3.2556,3.2638,3.2652,3.2604,3.2748,3.2697,3.2708,3.2736,3.2752,3.2764,3.2759,3.2552,0,0,0,0,0,3.2357,3.2408,3.243,3.2508,3.2524,3.2531,3.2559,3.2552,3.2583,3.2595,3.2612,3.2642,3.269,3.2722,3.2767,3.2863,3.2869,3.2907,3.2919,3.293,3.2939,3.2991,3.3008,3.2827,3.2827,3.2826,0,0,3.2404,3.2426,3.2459,3.252,3.2542,3.2595,3.2542,3.26,3.2639,3.2604,3.2679,3.2692,3.2726,3.2813,3.2853,3.2827,3.2991,3.294,3.2948,3.2952,3.3001,3.3018,3.3034,3.2832,3.2831,3.283,0,0,3.2517,3.2539,3.2607,3.2631,3.2666,3.267,3.2686,3.2716,3.2723,3.2798,3.2773,3.282,3.2902,3.2927,3.2951,3.3075,3.3052,3.309,3.3155,3.3206,3.322,3.3233,3.3277,3.3293,3.3099,3.3099,3.31,0,3.2571,3.2651,3.2644,3.2704,3.2732,3.2703,3.2771,3.2795,3.2843,3.2862,3.2834,3.2937,3.2958,3.3051,3.3081,3.3101,3.312,3.3085,3.3219,3.3232,3.3243,3.3285,3.3302,3.3104,3.3103,3.3103,3.3102,0,3.2715,3.2771,3.2821,3.2869,3.2902,3.2966,3.2969,3.3004,3.2994,3.3001,3.3079,3.3102,3.3152,3.3173,3.3164,3.3266,3.3249,3.322,3.3168,3.3265,3.3304,3.332,3.311,3.3108,3.3107,3.3106,0,0,3.2864,3.2907,3.2926,3.2947,3.2985,3.3027,3.309,3.3139,3.3169,3.3203,3.3256,3.3327,3.3301,3.3327,3.3321,3.3366,3.3463,3.3331,3.3332,3.3355,3.3576,3.3597,3.3616,3.3448,3.3451,3.3454,3.3573,0,3.2979,3.3089,3.3085,3.3188,3.3239,3.3213,3.3268,3.3296,3.3305,3.335,3.3359,3.341,3.3371,3.3387,3.343,3.3442,3.3507,3.3433,3.3497,3.3499,3.3489,3.3636,3.3659,3.3769,3.3588,3.3591,3.3592,0,3.3127,3.3167,3.3275,3.3305,3.3327,3.3376,3.3421,3.3464,3.3496,3.3499,3.353,3.3517,3.358,3.3528,3.3615,3.3566,3.3592,3.3601,3.3605,3.361,3.3551,3.3645,3.3805,3.3821,3.3617,3.3615,3.3613,0,3.3224,3.3305,3.338,3.34,3.3437,3.3472,3.3489,3.3518,3.3548,3.3587,3.3606,3.3653,3.3678,3.3714,3.3713,3.3675,3.3802,3.3749,3.3806,3.3806,3.3834,3.3832,3.3999,3.3852,3.3851,3.3851,3.3851,0,3.3353,3.342,3.3425,3.3471,3.3545,3.354,3.3614,3.3627,3.3654,3.3702,3.3682,3.3728,3.3725,3.3771,3.3772,3.3844,3.3856,3.386,3.3859,3.3861,3.3861,3.3878,3.387,3.3855,3.3854,3.3854,3.3853,0,3.3473,3.3479,3.356,3.3588,3.3597,3.3651,3.3675,3.3719,3.3727,3.3788,3.3802,3.3814,3.3867,3.3871,3.3932,3.3932,3.402,3.4011,3.401,3.4008,3.4065,3.4059,3.4248,3.4273,3.411,3.4111,3.4113,0,3.3555,3.3606,3.3641,3.3672,3.3691,3.3741,3.3772,3.3769,3.3802,3.3843,3.3882,3.3934,3.3975,3.4062,3.4075,3.4123,3.4114,3.4177,3.4121,3.4122,3.4115,3.4111,3.4116,3.4188,3.419,3.4191,3.4192,0,3.3698,3.3699,3.3744,3.3791,3.3828,3.3864,3.3898,3.3925,3.3926,3.3964,3.4019,3.4051,3.4114,3.4166,3.4212,3.4229,3.4212,3.421,3.4226,3.4228,3.4225,3.4227,3.4039,3.4206,3.4204,3.4203,3.4203,3.4202,3.3802,3.3846,3.3877,3.3928,3.3954,3.3986,3.4029,3.4042,3.4088,3.4139,3.4135,3.4196,3.4227,3.4288,3.4309,3.4356,3.4334,3.4357,3.4363,3.4368,3.4374,3.4219,3.4364,3.4364,3.4364,3.4363,3.4363,0,3.3944,3.3963,3.401,3.4059,3.4099,3.4079,3.4116,3.4151,3.4204,3.4235,3.4277,3.434,3.439,3.4408,3.4457,3.4492,3.4485,3.4504,3.4501,3.4506,3.4391,3.4372,3.4509,3.4509,3.4509,3.4509,3.4509,3.4509,3.4023,3.4097,3.4101,3.4188,3.4206,3.4266,3.4288,3.4318,3.4343,3.4414,3.4456,3.4468,3.4494,3.4545,3.459,3.4594,3.4613,3.4636,3.4637,3.4529,3.4514,3.45,3.4482,3.464,3.464,3.4748,3.4749,3.4749]},{"header":{"parameterUnit":"m.s-1","parameterCategory":1,"la1":30.2991,"la2":30.254,"lo1":-89.0895,"lo2":-89.0444,"dy":0.0017,"dx":0.0017,"nx":28,"ny":28,"refTime":"2025-03-16T09:00:00:Z","depth":0,"parameterNumber":3,"parameterNumberName":"V-component_of_WINDS"},"data":[0,0,0,0,0,0,0,0,0,0,0,0,0,0,0,0,0,0,0,0,0,0,0,0,0,0,0,0,0,0,0,0,0,0,0,0,0,0,0,0,0,0,0,0,0,0,0,0,0,0,0,0,0,0,0,0,0,0,-4.0444,-4.0446,0,-4.0676,-4.0679,-4.0681,-4.0664,-4.0661,-4.0657,-4.0654,-4.0896,-4.0905,-4.0914,0,0,0,0,0,0,0,0,0,0,0,0,0,-3.999,-3.9998,-4.0443,-4.0446,-4.0449,-4.0675,-4.0679,-4.0682,-4.0665,-4.0661,-4.0657,-4.0653,-4.0892,-4.0904,-4.0915,0,0,0,0,0,0,0,0,0,0,0,0,0,-4.0201,-4.0001,-4.0443,-4.0468,-4.0473,-4.0675,-4.0679,-4.0683,-4.0666,-4.0661,-4.0655,-4.0651,-4.0889,-4.0903,-4.0917,-4.111,0,0,-4.0961,-4.0967,0,0,0,0,0,0,0,0,-4.0189,-4.0218,-4.0461,-4.0467,-4.0472,-4.0636,-4.0607,-4.0826,-4.0667,-4.0593,-4.0654,-4.0648,-4.0814,-4.0834,-4.0889,-4.1122,-4.1132,-4.0962,-4.0971,-4.0977,-4.0982,0,0,0,0,0,0,0,-4.0174,-4.0208,-4.0535,-4.0465,-4.0472,-4.0469,-4.0493,-4.0649,-4.073,-4.0599,-4.0598,-4.0626,-4.0815,-4.0875,-4.0894,-4.1136,-4.0962,-4.0975,-4.0984,-4.099,-4.1541,-4.1546,0,0,0,0,0,0,-4.0154,-4.0196,-4.0528,-4.0542,-4.0315,-4.0482,-4.0509,-4.0589,-4.0728,-4.0744,-4.063,-4.0624,-4.0853,-4.0878,-4.0903,-4.114,-4.0977,-4.0991,-4.0999,-4.1535,-4.1542,-4.1549,0,0,0,0,0,0,-4.0144,-4.0183,-4.0519,-4.0369,-4.0411,-4.0495,-4.0585,-4.0596,-4.0655,-4.0751,-4.0766,-4.0676,-4.085,-4.0883,-4.1059,-4.1148,-4.0997,-4.1011,-4.1528,-4.1537,-4.1545,-4.1615,0,0,0,0,0,0,-4.0131,-4.018,-4.0253,-4.0371,-4.0419,-4.067,-4.059,-4.0604,-4.068,-4.0675,-4.0798,-4.0813,-4.0848,-4.1038,-4.1074,-4.1165,-4.1022,-4.152,-4.1532,-4.1543,-4.1605,-4.1625,-4.1643,0,0,0,0,0,-4.0115,-4.0264,-4.0257,-4.0297,-4.0513,-4.0675,-4.0703,-4.0739,-4.0687,-4.0763,-4.0824,-4.081,-4.1132,-4.1056,-4.1096,-4.1194,-4.1515,-4.1529,-4.1542,-4.1597,-4.1621,-4.1642,0,0,0,0,0,0,-4.0156,-4.028,-4.0273,-4.0465,-4.056,-4.0672,-4.0768,-4.0764,-4.0876,-4.0866,-4.0907,-4.0935,-4.1113,-4.1171,-4.1083,-4.1389,-4.1317,-4.1339,-4.1345,-4.1369,-4.1388,-4.1371,-4.1034,0,0,0,0,0,-4.0187,-4.0307,-4.041,-4.0569,-4.0616,-4.0684,-4.0756,-4.0776,-4.0876,-4.0916,-4.0991,-4.109,-4.1214,-4.1294,-4.1413,-4.1613,-4.1641,-4.17,-4.1719,-4.1734,-4.1753,-4.1865,-4.1893,-4.1593,-4.1592,-4.1592,0,0,-4.0253,-4.0336,-4.0409,-4.0579,-4.0655,-4.078,-4.0718,-4.0853,-4.0947,-4.0937,-4.1109,-4.1167,-4.128,-4.1469,-4.1557,-4.1523,-4.1842,-4.1751,-4.1762,-4.1773,-4.1882,-4.191,-4.1935,-4.1602,-4.16,-4.1599,0,0,-4.0438,-4.0512,-4.0653,-4.073,-4.0845,-4.0889,-4.0923,-4.1037,-4.1075,-4.1247,-4.1243,-4.1356,-4.1568,-4.1649,-4.1718,-4.1935,-4.1927,-4.1973,-4.2071,-4.2179,-4.2203,-4.2224,-4.2304,-4.2331,-4.1991,-4.1991,-4.1991,0,-4.0506,-4.0693,-4.0727,-4.0863,-4.0939,-4.0935,-4.1079,-4.1153,-4.1301,-4.1355,-4.1314,-4.1581,-4.1657,-4.1867,-4.1919,-4.1975,-4.2017,-4.196,-4.2197,-4.2218,-4.2239,-4.2315,-4.2344,-4.1996,-4.1996,-4.1995,-4.1995,0,-4.0773,-4.0903,-4.1003,-4.1146,-4.1233,-4.1373,-4.1429,-4.1513,-4.1525,-4.1574,-4.1751,-4.1842,-4.198,-4.2031,-4.2044,-4.2243,-4.2219,-4.2187,-4.2116,-4.2272,-4.2344,-4.2374,-4.2003,-4.2002,-4.2,-4.1999,0,0,-4.0991,-4.115,-4.1187,-4.1252,-4.1379,-4.1481,-4.1621,-4.1755,-4.1828,-4.1931,-4.2051,-4.2231,-4.2203,-4.2281,-4.2304,-4.2399,-4.2567,-4.2356,-4.2359,-4.2394,-4.2795,-4.2819,-4.2852,-4.2562,-4.2567,-4.2572,-4.2786,0,-4.119,-4.1437,-4.1472,-4.1691,-4.1813,-4.1811,-4.1934,-4.2026,-4.2075,-4.2187,-4.2242,-4.237,-4.2322,-4.237,-4.2464,-4.2527,-4.2649,-4.2511,-4.2676,-4.2681,-4.265,-4.289,-4.2916,-4.3113,-4.2814,-4.2819,-4.2822,0,-4.1455,-4.1564,-4.1796,-4.1907,-4.196,-4.2069,-4.2196,-4.2302,-4.2407,-4.2437,-4.2525,-4.2536,-4.2683,-4.2604,-4.2809,-4.2715,-4.2784,-4.2825,-4.2834,-4.2852,-4.2763,-4.2916,-4.3177,-4.3207,-4.2867,-4.2863,-4.286,0,-4.1593,-4.1798,-4.1964,-4.202,-4.2153,-4.2231,-4.229,-4.239,-4.2469,-4.258,-4.2632,-4.2759,-4.2829,-4.2928,-4.2974,-4.2911,-4.3177,-4.3101,-4.3207,-4.3206,-4.3265,-4.3261,-4.3542,-4.3306,-4.3305,-4.3305,-4.3304,0,-4.1813,-4.1956,-4.2028,-4.213,-4.229,-4.2329,-4.2487,-4.2544,-4.2633,-4.2747,-4.2753,-4.2861,-4.2913,-4.303,-4.3066,-4.3232,-4.3263,-4.3292,-4.3301,-4.3293,-4.329,-4.3341,-4.3329,-4.3313,-4.3311,-4.331,-4.3308,0,-4.1996,-4.2049,-4.223,-4.2341,-4.2373,-4.2486,-4.2582,-4.2682,-4.2731,-4.2876,-4.2912,-4.2989,-4.3126,-4.3181,-4.3349,-4.3374,-4.3565,-4.3562,-4.353,-4.3533,-4.3637,-4.3627,-4.3962,-4.4009,-4.374,-4.3742,-4.3744,0,-4.2133,-4.2243,-4.2366,-4.2442,-4.2504,-4.2627,-4.2708,-4.275,-4.2834,-4.2963,-4.3048,-4.3184,-4.3296,-4.3516,-4.3588,-4.3717,-4.3718,-4.3827,-4.3738,-4.3727,-4.3723,-4.3717,-4.3729,-4.3844,-4.3847,-4.3849,-4.3851,0,-4.2373,-4.2394,-4.2509,-4.2635,-4.273,-4.2831,-4.293,-4.2992,-4.305,-4.3145,-4.3285,-4.3371,-4.3543,-4.368,-4.3813,-4.3876,-4.3875,-4.3878,-4.391,-4.3904,-4.3882,-4.3898,-4.3577,-4.387,-4.3868,-4.3867,-4.3866,-4.3865,-4.2539,-4.2636,-4.2738,-4.2867,-4.2945,-4.3037,-4.3137,-4.3198,-4.3315,-4.3457,-4.3476,-4.3626,-4.373,-4.3909,-4.3977,-4.4097,-4.4069,-4.4115,-4.4127,-4.4138,-4.4146,-4.3861,-4.4121,-4.4121,-4.412,-4.412,-4.412,0,-4.278,-4.2846,-4.2963,-4.3101,-4.3203,-4.319,-4.3299,-4.3385,-4.3517,-4.3613,-4.3723,-4.3885,-4.4018,-4.41,-4.4234,-4.4315,-4.4318,-4.4349,-4.4344,-4.4359,-4.4162,-4.4122,-4.4344,-4.4344,-4.4344,-4.4344,-4.4344,-4.4344,-4.2918,-4.3083,-4.3117,-4.3322,-4.3387,-4.3534,-4.3597,-4.3683,-4.376,-4.394,-4.405,-4.4102,-4.4194,-4.4335,-4.4457,-4.4478,-4.4528,-4.4562,-4.4581,-4.4396,-4.4373,-4.4351,-4.4314,-4.4572,-4.4572,-4.4769,-4.477,-4.4772]}]]